Flag for Israel Weather past 2 weeks in Ashkelon, Israel

Now
66 °F

Sunny.


Feels Like: 66 °F
Forecast: 56 / 64 °F
Wind: 1 mph from North

Location: Ben Gurion International Airport

Current Time: Jan 29, 2015 at 10:52:03 AM

Latest Report: Jan 29, 2015 at 10:20 AM


Visibility: 10 mi

Pressure: 29.98 "Hg

Humidity: 43%

Dew point: 43 °F

Location of AshkelonLocation

Historic Weather in Ashkelon — Graph

°F

Ashkelon temperature yesterday

Maximum temperature yesterday: 66 °F (at 1:50 PM)
Minimum temperature yesterday: 52 °F (at 10:50 PM)
Average temperature yesterday: 58 °F

Past Weeks' High & Low Weather Summary

 TemperatureHumidityPressure
High77 °F (Jan 21, 2:20 PM)100% (Jan 18, 4:20 AM)30.33 "Hg (Jan 18, 4:20 AM)
Low43 °F (Jan 18, 4:20 AM)22% (Jan 24, 1:50 PM)29.86 "Hg (Jan 28, 12:50 AM)
Average56 °F72%30.10 "Hg
* Reported Jan 14 9:20 AM — Jan 29 9:50 AM, Ashkelon, Weather by CustomWeather, © 2014

Note: Actual official high and low records may vary slightly from our data, if they occured in-between our weather recording intervals... More about our weather records

Advertising

Ashkelon weather history for previous 24 hours

 ConditionsComfort  
Time TempWeatherWind HumidityBarometerVisibility
9:50 AM
Jan 29
63 °FSunny.2 mph52%29.98 "Hg10 mi
9:20 AM61 °FSunny.3 mph55%29.98 "Hg10 mi
8:50 AM57 °FSunny.2 mph63%29.98 "Hg10 mi
8:20 AM54 °FSunny.2 mph72%29.98 "Hg10 mi
7:50 AM52 °FSunny.3 mph77%29.98 "Hg10 mi
7:20 AM52 °FSunny.2 mph77%29.98 "Hg10 mi
6:50 AM54 °FSunny.7 mph72%29.98 "Hg10 mi
6:20 AM54 °FClear.3 mph72%29.95 "Hg10 mi
5:50 AM52 °FClear.2 mph77%29.95 "Hg10 mi
5:20 AM52 °FClear.6 mph77%29.95 "Hg10 mi
4:50 AM52 °FClear.5 mph77%29.95 "Hg10 mi
4:20 AM52 °FClear.3 mph77%29.95 "Hg10 mi
3:50 AM52 °FClear.3 mph77%29.95 "Hg10 mi
3:20 AM52 °FClear.6 mph77%29.95 "Hg10 mi
2:50 AM52 °FClear.3 mph77%29.95 "Hg10 mi
2:20 AM52 °FClear.5 mph82%29.95 "Hg10 mi
1:50 AM52 °FClear.5 mph82%29.98 "Hg10 mi
1:20 AM52 °FClear.3 mph82%29.95 "Hg10 mi
12:50 AM52 °FClear.3 mph82%29.98 "Hg10 mi
12:20 AM52 °FClear.5 mph82%29.95 "Hg10 mi
11:50 PM
Jan 28
52 °FClear.2 mph82%29.98 "Hg10 mi
11:20 PM52 °FClear.3 mph82%29.98 "Hg10 mi
10:50 PM52 °FClear.5 mph88%29.98 "Hg10 mi
10:20 PM54 °FClear.2 mph82%29.98 "Hg10 mi
9:50 PM54 °FClear.2 mph88%29.98 "Hg10 mi
9:20 PM54 °FClear.2 mph88%29.98 "Hg10 mi
8:50 PM54 °FClear.6 mph88%29.98 "Hg10 mi
8:20 PM54 °FClear.7 mph88%30.01 "Hg10 mi
7:50 PM55 °FClear.7 mph88%30.01 "Hg10 mi
7:20 PM55 °FClear.6 mph88%30.01 "Hg10 mi
6:50 PM57 °FClear.3 mph82%30.01 "Hg10 mi
6:20 PM57 °FClear.2 mph82%29.98 "Hg10 mi
5:50 PM57 °FClear.1 mph82%29.98 "Hg10 mi
5:20 PM59 °FPassing clouds.2 mph77%29.98 "HgN/A
4:50 PM59 °FScattered clouds.6 mph77%29.98 "HgN/A
4:20 PM59 °FPartly sunny.8 mph77%29.95 "HgN/A
3:50 PM59 °FPartly sunny.14 mph82%29.95 "HgN/A
3:20 PM59 °FLight rain. Partly sunny.17 mph77%29.95 "HgN/A
2:50 PM63 °FScattered clouds.12 mph64%29.92 "HgN/A
2:20 PM64 °FPassing clouds.13 mph60%29.92 "HgN/A
1:50 PM66 °FScattered clouds.9 mph56%29.92 "HgN/A
1:20 PM64 °FScattered clouds.8 mph60%29.92 "HgN/A
12:50 PM64 °FScattered clouds.12 mph64%29.92 "HgN/A
12:20 PM64 °FScattered clouds.10 mph60%29.92 "HgN/A
11:50 AM64 °FScattered clouds.13 mph60%29.95 "HgN/A
11:20 AM64 °FScattered clouds.14 mph60%29.95 "HgN/A
10:50 AM64 °FPartly sunny.15 mph68%29.95 "HgN/A
10:20 AM64 °FPartly sunny.15 mph64%29.95 "HgN/A
Weather by CustomWeather, © 2014

See weather overviewHow to use our weather pages